This demonstration page uses our WeatherBlox Daily Observations layout. Learn more.

Left ArrowRight Arrow

41.86663, -103.66717

Hourly Observations for November 27, 2019

Temp ( °F °C ) Dew Point ( °F °C ) Humidity (%) Winds ( mph kmh ) Pressure ( in mb ) Visibility ( mi km ) Precip ( " mm )
12:53 am 00:53 Cloudy 20 -6.7 18 -7.8 92 92 NNW 7 11 30.09 1019 10 16 0.00 0.00
1:53 am 01:53 Clear 14 -10 11 -11.7 88 88 WNW 7 11 30.14 1021 10 16 0.00 0.00
2:53 am 02:53 Clear 11 -11.7 7 -13.9 84 84 NW 6 9 30.18 1022 10 16 0.00 0.00
3:53 am 03:53 Clear 8 -13.3 4 -15.6 83 83 N 6 9 30.20 1023 10 16 0.00 0.00
4:53 am 04:53 Clear 6 -14.4 3 -16.1 87 87 WNW 5 7 30.21 1023 10 16 0.00 0.00
5:53 am 05:53 Clear 2 -16.7 -1 -18.3 88 88 NNW 3 6 30.25 1024 10 16 0.00 0.00
6:53 am 06:53 Clear -1 -18.3 -3 -19.4 91 91 N 6 9 30.29 1026 10 16 0.00 0.00
7:53 am 07:53 Sunny 3 -16.1 0 -17.8 87 87 Calm 30.28 1026 10 16 0.00 0.00
8:53 am 08:53 Sunny 9 -12.8 5 -15 84 84 Calm 30.29 1026 10 16 0.00 0.00
9:53 am 09:53 Sunny 13 -10.6 9 -12.8 84 84 SE 6 9 30.29 1026 10 16 0.00 0.00
10:53 am 10:53 Partly Cloudy 15 -9.4 11 -11.7 84 84 ESE 8 13 30.29 1026 10 16 0.00 0.00
11:53 am 11:53 Sunny 18 -7.8 12 -11.1 77 77 ESE 10 17 30.25 1025 10 16 0.00 0.00
12:53 pm 12:53 Partly Cloudy 21 -6.1 15 -9.4 78 78 ESE 10 17 30.21 1023 10 16 0.00 0.00
1:53 pm 13:53 Sunny 22 -5.6 15 -9.4 75 75 ESE 12 19 30.24 1024 10 16 0.00 0.00
2:53 pm 14:53 Sunny 22 -5.6 14 -10 71 71 E 15 24 30.25 1024 10 16 0.00 0.00
3:53 pm 15:53 Sunny 20 -6.7 14 -10 78 78 ESE 17 28 30.24 1024 10 16 0.00 0.00
4:53 pm 16:53 Clear 19 -7.2 14 -10 81 81 ESE 14 22 30.25 1024 10 16 0.00 0.00
5:53 pm 17:53 Clear 20 -6.7 15 -9.4 81 81 ESE 21 33 30.28 1026 10 16 0.00 0.00
6:53 pm 18:53 Clear 20 -6.7 15 -9.4 81 81 ESE 18 30 30.28 1025 10 16 0.00 0.00
7:53 pm 19:53 Clear 19 -7.2 15 -9.4 84 84 E 17 28 30.27 1025 10 16 0.00 0.00
8:53 pm 20:53 Clear 19 -7.2 15 -9.4 84 84 ESE 17 28 30.26 1025 10 16 0.00 0.00
9:53 pm 21:53 Clear 18 -7.8 15 -9.4 88 88 ESE 18 30 30.24 1024 10 16 0.00 0.00
10:44 pm 22:44 Mostly Cloudy 19 -7.2 16 -8.9 88 88 ESE 16 26 30.30 1026 10 16 0.00 0.00
10:53 pm 22:53 Cloudy 19 -7.2 16 -8.9 88 88 ESE 17 28 30.24 1024 10 16 0.00 0.00
11:53 pm 23:53 Cloudy 20 -6.7 17 -8.3 89 89 E 18 30 30.20 1023 10 16 0.00 0.00

Powered by AerisWeather